Location: Chèvreville
(49.1099°N, 2.8495°E)
Time: 10:19:29
(UTC+00:00)

SO-50 - Pass Details

Date: 06 December 2023
Orbit: 607 x 661 km, 64.6° (Epoch: 21 February)

Event Time Altitude Azimuth Distance (km) Brightness Sun altitude
Exits shadow 05:17:54 21° 346° (NNW) 1,458 ? -20.2°
Drops below altitude 10° 05:20:43 10° 22° (NNE) 2,044 ? -19.8°
Sets 05:23:28 0° 38° (NE) 2,944 ? -19.3°
